| time (UTC) | temp F | wind direction | speed MPH | gust MPH | rain 1hr in | rain 24hr in | rain mn in | humidity % | barometer mb |
| 20260508035603 | 49 | 335 | 3.0 | 2.0 | 0.00 | 0.00 | 0.00 | 66 | 1016.9 |
| 20260508035104 | 49 | 233 | 2.0 | 1.0 | 0.00 | 0.00 | 0.00 | 66 | 1016.9 |
| 20260508034605 | 50 | 283 | 1.0 | 5.0 | 0.00 | 0.00 | 0.00 | 68 | 1016.9 |
| 20260508034103 | 50 | 284 | 1.0 | 0.0 | 0.00 | 0.00 | 0.00 | 68 | 1016.9 |
| 20260508033604 | 50 | 280 | 1.0 | 7.0 | 0.00 | 0.00 | 0.00 | 69 | 1016.7 |
| 20260508033105 | 51 | 293 | 2.0 | 3.0 | 0.00 | 0.00 | 0.00 | 68 | 1016.7 |
| 20260508032606 | 51 | 302 | 5.0 | 4.0 | 0.00 | 0.00 | 0.00 | 67 | 1016.7 |
| 20260508032115 | 51 | 281 | 3.0 | 3.0 | 0.00 | 0.00 | 0.00 | 67 | 1016.7 |
| 20260508031606 | 52 | 229 | 2.0 | 0.0 | 0.00 | 0.00 | 0.00 | 66 | 1016.7 |
| 20260508031107 | 52 | 319 | 5.0 | 3.0 | 0.00 | 0.00 | 0.00 | 65 | 1016.7 |
| 20260508030608 | 52 | 315 | 4.0 | 3.0 | 0.00 | 0.00 | 0.00 | 64 | 1016.7 |
| 20260508030109 | 53 | 345 | 4.0 | 2.0 | 0.00 | 0.00 | 0.00 | 63 | 1016.7 |
| 20260508025610 | 53 | 293 | 3.0 | 10.0 | 0.00 | 0.00 | 0.00 | 62 | 1016.7 |
| 20260508025109 | 53 | 262 | 3.0 | 3.0 | 0.00 | 0.00 | 0.00 | 60 | 1016.7 |
| 20260508024610 | 54 | 301 | 0.0 | 5.0 | 0.00 | 0.00 | 0.00 | 58 | 1016.9 |
| 20260508024111 | 54 | 290 | 2.0 | 2.0 | 0.00 | 0.00 | 0.00 | 57 | 1016.9 |
| 20260508022612 | 55 | 298 | 5.0 | 5.0 | 0.00 | 0.00 | 0.00 | 54 | 1016.7 |
| 20260508022113 | 55 | 304 | 4.0 | 3.0 | 0.00 | 0.00 | 0.00 | 53 | 1016.7 |
| 20260508021614 | 56 | 326 | 5.0 | 5.0 | 0.00 | 0.00 | 0.00 | 52 | 1016.7 |
| 20260508020616 | 56 | 312 | 7.0 | 5.0 | 0.00 | 0.00 | 0.00 | 49 | 1016.7 |
| 20260508015117 | 57 | 326 | 6.0 | 3.0 | 0.00 | 0.00 | 0.00 | 48 | 1016.9 |
| 20260508014618 | 57 | 319 | 3.0 | 7.0 | 0.00 | 0.00 | 0.00 | 47 | 1016.9 |
| 20260508014119 | 57 | 321 | 7.0 | 7.0 | 0.00 | 0.00 | 0.00 | 46 | 1016.9 |
| 20260508013617 | 57 | 304 | 7.0 | 8.0 | 0.00 | 0.00 | 0.00 | 44 | 1017.0 |
| 20260508012619 | 58 | 326 | 6.0 | 6.0 | 0.00 | 0.00 | 0.00 | 43 | 1017.1 |
| 20260508012121 | 58 | 314 | 7.0 | 5.0 | 0.00 | 0.00 | 0.00 | 44 | 1017.1 |
| 20260508011120 | 59 | 304 | 7.0 | 9.0 | 0.00 | 0.00 | 0.00 | 43 | 1017.1 |
| 20260508010621 | 59 | 319 | 6.0 | 5.0 | 0.00 | 0.00 | 0.00 | 43 | 1017.2 |
| 20260508005624 | 60 | 349 | 7.0 | 3.0 | 0.00 | 0.00 | 0.00 | 41 | 1017.2 |
| 20260508005125 | 60 | 297 | 6.0 | 7.0 | 0.00 | 0.00 | 0.00 | 42 | 1017.2 |
| 20260508003625 | 60 | 321 | 7.0 | 9.0 | 0.00 | 0.00 | 0.00 | 41 | 1017.1 |
| 20260508003126 | 60 | 325 | 7.0 | 6.0 | 0.00 | 0.00 | 0.00 | 40 | 1017.1 |
| 20260508002126 | 61 | 312 | 9.0 | 7.0 | 0.00 | 0.00 | 0.00 | 41 | 1017.2 |
| 20260508000629 | 61 | 312 | 6.0 | 7.0 | 0.00 | 0.00 | 0.00 | 41 | 1017.1 |
| 20260507235629 | 62 | 291 | 6.0 | 8.0 | 0.00 | 0.00 | 0.00 | 39 | 1016.9 |
| 20260507235130 | 62 | 280 | 8.0 | 6.0 | 0.00 | 0.00 | 0.00 | 37 | 1017.0 |
| 20260507234631 | 62 | 321 | 7.0 | 4.0 | 0.00 | 0.00 | 0.00 | 36 | 1017.0 |
| 20260507234132 | 63 | 284 | 6.0 | 5.0 | 0.00 | 0.00 | 0.00 | 35 | 1016.9 |
| 20260507233633 | 63 | 342 | 8.0 | 7.0 | 0.00 | 0.00 | 0.00 | 34 | 1017.0 |
| 20260507232632 | 64 | 312 | 8.0 | 7.0 | 0.00 | 0.00 | 0.00 | 32 | 1016.9 |
| 20260507231634 | 64 | 339 | 4.0 | 3.0 | 0.00 | 0.00 | 0.00 | 30 | 1017.0 |
| 20260507230634 | 65 | 208 | 4.0 | 2.0 | 0.00 | 0.00 | 0.00 | 31 | 1017.1 |
| 20260507230151 | 65 | 300 | 5.0 | 6.0 | 0.00 | 0.00 | 0.00 | 30 | 1017.1 |
| 20260507225655 | 64 | 293 | 6.0 | 7.0 | 0.00 | 0.00 | 0.00 | 30 | 1017.2 |
| 20260507224136 | 65 | 291 | 6.0 | 11.0 | 0.00 | 0.00 | 0.00 | 31 | 1017.2 |
| 20260507223637 | 66 | 240 | 4.0 | 2.0 | 0.00 | 0.00 | 0.00 | 30 | 1017.3 |
| 20260507223138 | 66 | 315 | 4.0 | 4.0 | 0.00 | 0.00 | 0.00 | 33 | 1017.3 |
| 20260507222639 | 66 | 333 | 2.0 | 6.0 | 0.00 | 0.00 | 0.00 | 35 | 1017.5 |
| 20260507222140 | 66 | 273 | 5.0 | 3.0 | 0.00 | 0.00 | 0.00 | 35 | 1017.5 |
| 20260507221638 | 66 | 332 | 4.0 | 3.0 | 0.00 | 0.00 | 0.00 | 34 | 1017.5 |
| 20260507220703 | 66 | 273 | 2.0 | 8.0 | 0.00 | 0.00 | 0.00 | 35 | 1017.6 |
| 20260507220142 | 66 | 290 | 3.0 | 3.0 | 0.00 | 0.00 | 0.00 | 36 | 1017.7 |
| 20260507215141 | 66 | 309 | 4.0 | 3.0 | 0.00 | 0.00 | 0.00 | 36 | 1017.8 |
| 20260507214143 | 66 | 308 | 5.0 | 5.0 | 0.00 | 0.00 | 0.00 | 37 | 1017.7 |
| 20260507213145 | 66 | 259 | 2.0 | 3.0 | 0.00 | 0.00 | 0.00 | 36 | 1017.7 |
| 20260507212145 | 66 | 177 | 3.0 | 1.0 | 0.00 | 0.00 | 0.00 | 34 | 1017.7 |
| 20260507211147 | 66 | 281 | 4.0 | 4.0 | 0.00 | 0.00 | 0.00 | 28 | 1017.8 |
| 20260507210648 | 66 | 229 | 3.0 | 2.0 | 0.00 | 0.00 | 0.00 | 32 | 1017.7 |
| 20260507210146 | 66 | 219 | 4.0 | 2.0 | 0.00 | 0.00 | 0.00 | 31 | 1017.8 |
| 20260507205647 | 65 | 226 | 2.0 | 5.0 | 0.00 | 0.00 | 0.00 | 32 | 1017.8 |
| 20260507204649 | 65 | 307 | 5.0 | 2.0 | 0.00 | 0.00 | 0.00 | 31 | 1017.9 |
| 20260507204150 | 64 | 297 | 6.0 | 8.0 | 0.00 | 0.00 | 0.00 | 35 | 1017.9 |
| 20260507201653 | 64 | 285 | 6.0 | 7.0 | 0.00 | 0.00 | 0.00 | 33 | 1018.1 |
| 20260507201151 | 64 | 304 | 5.0 | 5.0 | 0.00 | 0.00 | 0.00 | 33 | 1018.1 |
| 20260507195654 | 63 | 343 | 4.0 | 3.0 | 0.00 | 0.00 | 0.00 | 34 | 1018.1 |
| 20260507195156 | 63 | 290 | 2.0 | 0.0 | 0.00 | 0.00 | 0.00 | 37 | 1018.1 |
| 20260507194654 | 63 | 312 | 6.0 | 5.0 | 0.00 | 0.00 | 0.00 | 35 | 1018.1 |
| 20260507194155 | 63 | 298 | 5.0 | 4.0 | 0.00 | 0.00 | 0.00 | 40 | 1018.1 |
| 20260507193657 | 62 | 253 | 6.0 | 2.0 | 0.00 | 0.00 | 0.00 | 40 | 1018.1 |
| 20260507192658 | 63 | 309 | 3.0 | 3.0 | 0.00 | 0.00 | 0.00 | 41 | 1018.1 |
| 20260507192157 | 63 | 294 | 7.0 | 7.0 | 0.00 | 0.00 | 0.00 | 42 | 1018.1 |
| 20260507191658 | 62 | 307 | 2.0 | 3.0 | 0.00 | 0.00 | 0.00 | 42 | 1018.1 |
| 20260507191159 | 62 | 274 | 3.0 | 6.0 | 0.00 | 0.00 | 0.00 | 43 | 1017.9 |
| 20260507190700 | 62 | 274 | 3.0 | 3.0 | 0.00 | 0.00 | 0.00 | 42 | 1018.1 |
| 20260507190201 | 61 | 291 | 4.0 | 2.0 | 0.00 | 0.00 | 0.00 | 46 | 1018.2 |
| 20260507185700 | 61 | 291 | 1.0 | 3.0 | 0.00 | 0.00 | 0.00 | 44 | 1018.1 |
| 20260507185201 | 61 | 301 | 6.0 | 5.0 | 0.00 | 0.00 | 0.00 | 42 | 1018.2 |
| 20260507184702 | 61 | 287 | 8.0 | 11.0 | 0.00 | 0.00 | 0.00 | 43 | 1018.1 |
| 20260507184203 | 61 | 304 | 5.0 | 3.0 | 0.00 | 0.00 | 0.00 | 45 | 1018.2 |
| 20260507183704 | 60 | 253 | 4.0 | 1.0 | 0.00 | 0.00 | 0.00 | 44 | 1018.1 |
| 20260507183203 | 60 | 253 | 4.0 | 2.0 | 0.00 | 0.00 | 0.00 | 46 | 1017.9 |
| 20260507182704 | 60 | 330 | 8.0 | 6.0 | 0.00 | 0.00 | 0.00 | 43 | 1017.9 |
| 20260507182205 | 60 | 210 | 3.0 | 1.0 | 0.00 | 0.00 | 0.00 | 45 | 1017.9 |
| 20260507181706 | 60 | 332 | 6.0 | 6.0 | 0.00 | 0.00 | 0.00 | 40 | 1017.9 |
| 20260507181207 | 59 | 273 | 6.0 | 3.0 | 0.00 | 0.00 | 0.00 | 43 | 1017.9 |
| 20260507180706 | 59 | 205 | 3.0 | 1.0 | 0.00 | 0.00 | 0.00 | 43 | 1017.9 |
| 20260507180207 | 59 | 250 | 7.0 | 3.0 | 0.00 | 0.00 | 0.00 | 42 | 1018.1 |
| 20260507175708 | 58 | 283 | 3.0 | 4.0 | 0.00 | 0.00 | 0.00 | 45 | 1017.9 |
| 20260507175209 | 58 | 274 | 4.0 | 6.0 | 0.00 | 0.00 | 0.00 | 46 | 1017.9 |
| 20260507174710 | 58 | 267 | 6.0 | 2.0 | 0.00 | 0.00 | 0.00 | 46 | 1017.9 |
| 20260507174209 | 58 | 250 | 5.0 | 1.0 | 0.00 | 0.00 | 0.00 | 46 | 1017.9 |
| 20260507173710 | 58 | 295 | 3.0 | 3.0 | 0.00 | 0.00 | 0.00 | 47 | 1017.9 |
| 20260507173211 | 58 | 212 | 2.0 | 0.0 | 0.00 | 0.00 | 0.00 | 47 | 1017.8 |
| 20260507172213 | 58 | 308 | 7.0 | 5.0 | 0.00 | 0.00 | 0.00 | 49 | 1017.7 |
| 20260507171711 | 58 | 204 | 4.0 | 1.0 | 0.00 | 0.00 | 0.00 | 49 | 1017.7 |
| 20260507171212 | 57 | 290 | 5.0 | 1.0 | 0.00 | 0.00 | 0.00 | 50 | 1017.7 |
| 20260507165715 | 58 | 267 | 6.0 | 7.0 | 0.00 | 0.00 | 0.00 | 49 | 1017.6 |
| 20260507165213 | 57 | 264 | 3.0 | 1.0 | 0.00 | 0.00 | 0.00 | 50 | 1017.6 |
| 20260507163716 | 56 | 215 | 5.0 | 3.0 | 0.00 | 0.00 | 0.00 | 54 | 1017.5 |
| 20260507162715 | 56 | 273 | 4.0 | 1.0 | 0.00 | 0.00 | 0.00 | 55 | 1017.5 |
| 20260507162216 | 55 | 283 | 4.0 | 3.0 | 0.00 | 0.00 | 0.00 | 60 | 1017.5 |
| 20260507161717 | 55 | 266 | 2.0 | 0.0 | 0.00 | 0.00 | 0.00 | 65 | 1017.3 |
| 20260507161218 | 54 | 256 | 2.0 | 3.0 | 0.00 | 0.00 | 0.00 | 67 | 1017.3 |
| 20260507160720 | 54 | 288 | 0.0 | 0.0 | 0.00 | 0.00 | 0.00 | 69 | 1017.3 |
| 20260507160218 | 53 | 267 | 3.0 | 0.0 | 0.00 | 0.00 | 0.00 | 69 | 1017.5 |
| 20260507155719 | 53 | 276 | 3.0 | 5.0 | 0.00 | 0.00 | 0.00 | 69 | 1017.5 |
| 20260507155220 | 53 | 302 | 3.0 | 3.0 | 0.00 | 0.00 | 0.00 | 71 | 1017.5 |
| 20260507153720 | 51 | 298 | 2.0 | 1.0 | 0.00 | 0.00 | 0.00 | 75 | 1017.5 |
| 20260507153221 | 50 | 264 | 4.0 | 1.0 | 0.00 | 0.00 | 0.00 | 75 | 1017.5 |
| 20260507152722 | 50 | 318 | 3.0 | 4.0 | 0.00 | 0.00 | 0.00 | 78 | 1017.3 |
| 20260507151724 | 48 | 311 | 2.0 | 4.0 | 0.00 | 0.00 | 0.00 | 81 | 1017.5 |
| 20260507151222 | 48 | 330 | 3.0 | 7.0 | 0.00 | 0.00 | 0.00 | 82 | 1017.5 |
| 20260507150723 | 48 | 274 | 2.0 | 2.0 | 0.00 | 0.00 | 0.00 | 83 | 1017.5 |
| 20260507150224 | 47 | 300 | 3.0 | 1.0 | 0.00 | 0.00 | 0.00 | 83 | 1017.3 |
| 20260507145725 | 47 | 298 | 2.0 | 5.0 | 0.00 | 0.00 | 0.00 | 86 | 1017.3 |
| 20260507145226 | 46 | 217 | 3.0 | 1.0 | 0.00 | 0.00 | 0.00 | 88 | 1017.3 |
| 20260507144225 | 45 | 233 | 0.0 | 0.0 | 0.00 | 0.00 | 0.00 | 90 | 1017.2 |
| 20260507143726 | 45 | 222 | 0.0 | 0.0 | 0.00 | 0.00 | 0.00 | 91 | 1017.5 |
| 20260507143227 | 44 | 228 | 1.0 | 0.0 | 0.00 | 0.00 | 0.00 | 92 | 1017.2 |
| 20260507142728 | 44 | 266 | 0.0 | 0.0 | 0.00 | 0.00 | 0.00 | 93 | 1017.2 |
| 20260507141727 | 44 | 257 | 1.0 | 3.0 | 0.00 | 0.00 | 0.00 | 94 | 1017.1 |
| 20260507140729 | 43 | 328 | 0.0 | 0.0 | 0.00 | 0.00 | 0.00 | 95 | 1017.1 |
| 20260507140230 | 43 | 285 | 1.0 | 0.0 | 0.00 | 0.00 | 0.00 | 95 | 1017.0 |
| 20260507134848 | 43 | 302 | 2.0 | 2.0 | 0.00 | 0.00 | 0.00 | 95 | 1017.0 |
| 20260507134730 | 43 | 302 | 2.0 | 2.0 | 0.00 | 0.00 | 0.00 | 95 | 1017.0 |
| 20260507134232 | 43 | 294 | 2.0 | 2.0 | 0.00 | 0.00 | 0.00 | 95 | 1016.9 |
| 20260507133231 | 43 | 314 | 3.0 | 1.0 | 0.00 | 0.00 | 0.00 | 95 | 1016.9 |
| 20260507132732 | 43 | 314 | 2.0 | 3.0 | 0.00 | 0.00 | 0.00 | 95 | 1016.9 |
| 20260507131734 | 43 | 267 | 3.0 | 2.0 | 0.00 | 0.00 | 0.00 | 96 | 1016.9 |
| 20260507131235 | 43 | 278 | 2.0 | 2.0 | 0.00 | 0.00 | 0.00 | 96 | 1016.9 |
| 20260507130733 | 43 | 278 | 4.0 | 9.0 | 0.00 | 0.00 | 0.00 | 96 | 1017.0 |
| 20260507130234 | 43 | 283 | 2.0 | 5.0 | 0.00 | 0.00 | 0.00 | 96 | 1017.0 |
| 20260507125735 | 43 | 323 | 1.0 | 2.0 | 0.00 | 0.00 | 0.00 | 96 | 1017.0 |
| 20260507125236 | 43 | 300 | 4.0 | 1.0 | 0.00 | 0.00 | 0.00 | 96 | 1017.0 |
| 20260507124737 | 43 | 301 | 4.0 | 2.0 | 0.00 | 0.00 | 0.00 | 96 | 1017.0 |
| 20260507124236 | 44 | 314 | 3.0 | 2.0 | 0.00 | 0.00 | 0.00 | 96 | 1017.0 |
| 20260507123737 | 44 | 326 | 3.0 | 4.0 | 0.00 | 0.00 | 0.00 | 96 | 1016.9 |
| 20260507122739 | 44 | 338 | 5.0 | 3.0 | 0.00 | 0.00 | 0.00 | 96 | 1016.9 |
| 20260507121738 | 44 | 287 | 4.0 | 4.0 | 0.00 | 0.00 | 0.00 | 96 | 1016.7 |
| 20260507120740 | 44 | 356 | 4.0 | 2.0 | 0.00 | 0.00 | 0.00 | 96 | 1016.9 |
| 20260507120241 | 44 | 262 | 3.0 | 0.0 | 0.00 | 0.00 | 0.00 | 96 | 1016.9 |
| 20260507115742 | 44 | 298 | 3.0 | 7.0 | 0.00 | 0.00 | 0.00 | 96 | 1017.0 |
| 20260507115240 | 44 | 314 | 1.0 | 1.0 | 0.00 | 0.00 | 0.00 | 95 | 1017.0 |
| 20260507114242 | 44 | 307 | 5.0 | 3.0 | 0.00 | 0.00 | 0.00 | 95 | 1017.0 |
| 20260507113743 | 44 | 270 | 4.0 | 8.0 | 0.00 | 0.00 | 0.00 | 95 | 1017.0 |
| 20260507113245 | 44 | 291 | 4.0 | 4.0 | 0.00 | 0.00 | 0.00 | 95 | 1017.0 |
| 20260507112743 | 44 | 297 | 4.0 | 5.0 | 0.00 | 0.00 | 0.00 | 96 | 1017.0 |
| 20260507112244 | 44 | 293 | 5.0 | 2.0 | 0.00 | 0.00 | 0.00 | 96 | 1017.0 |
| 20260507111745 | 45 | 256 | 5.0 | 2.0 | 0.00 | 0.00 | 0.00 | 96 | 1017.0 |
| 20260507110747 | 45 | 297 | 3.0 | 6.0 | 0.00 | 0.00 | 0.00 | 96 | 1017.1 |
| 20260507110245 | 44 | 304 | 2.0 | 4.0 | 0.00 | 0.00 | 0.00 | 95 | 1017.1 |
| 20260507105746 | 45 | 273 | 6.0 | 7.0 | 0.00 | 0.00 | 0.00 | 95 | 1017.2 |
| 20260507105247 | 44 | 264 | 3.0 | 3.0 | 0.00 | 0.00 | 0.00 | 95 | 1017.1 |
| 20260507104748 | 45 | 302 | 3.0 | 4.0 | 0.00 | 0.00 | 0.00 | 95 | 1017.1 |
| 20260507104249 | 45 | 285 | 5.0 | 2.0 | 0.00 | 0.00 | 0.00 | 95 | 1017.1 |
| 20260507103747 | 45 | 308 | 3.0 | 7.0 | 0.00 | 0.00 | 0.00 | 95 | 1017.1 |
| 20260507103248 | 45 | 243 | 4.0 | 11.0 | 0.00 | 0.00 | 0.00 | 95 | 1017.1 |
| 20260507102750 | 45 | 278 | 6.0 | 5.0 | 0.00 | 0.00 | 0.00 | 95 | 1017.1 |
| 20260507102251 | 45 | 283 | 4.0 | 4.0 | 0.00 | 0.00 | 0.00 | 95 | 1017.2 |
| 20260507101752 | 45 | 304 | 5.0 | 4.0 | 0.00 | 0.00 | 0.00 | 95 | 1017.3 |
| 20260507101250 | 45 | 319 | 4.0 | 6.0 | 0.00 | 0.00 | 0.00 | 95 | 1017.5 |
| 20260507100751 | 45 | 252 | 5.0 | 2.0 | 0.00 | 0.00 | 0.00 | 95 | 1017.3 |
| 20260507100252 | 45 | 274 | 5.0 | 6.0 | 0.00 | 0.00 | 0.00 | 95 | 1017.5 |
| 20260507095753 | 45 | 284 | 5.0 | 5.0 | 0.00 | 0.00 | 0.00 | 95 | 1017.5 |
| 20260507095254 | 45 | 290 | 3.0 | 5.0 | 0.00 | 0.00 | 0.00 | 95 | 1017.5 |
| 20260507094752 | 45 | 319 | 4.0 | 3.0 | 0.00 | 0.00 | 0.00 | 95 | 1017.6 |
| 20260507094254 | 46 | 291 | 4.0 | 6.0 | 0.00 | 0.00 | 0.00 | 95 | 1017.7 |
| 20260507093755 | 46 | 277 | 6.0 | 3.0 | 0.00 | 0.00 | 0.00 | 95 | 1017.7 |
| 20260507092757 | 46 | 308 | 5.0 | 6.0 | 0.00 | 0.00 | 0.00 | 94 | 1017.8 |
| 20260507092255 | 46 | 309 | 5.0 | 4.0 | 0.00 | 0.00 | 0.00 | 94 | 1017.9 |
| 20260507091756 | 46 | 267 | 4.0 | 2.0 | 0.00 | 0.00 | 0.00 | 95 | 1017.9 |
| 20260507091257 | 46 | 288 | 4.0 | 6.0 | 0.00 | 0.00 | 0.00 | 95 | 1018.1 |
| 20260507090758 | 46 | 291 | 5.0 | 4.0 | 0.00 | 0.00 | 0.00 | 95 | 1018.1 |
| 20260507090259 | 46 | 281 | 6.0 | 6.0 | 0.00 | 0.00 | 0.00 | 95 | 1018.2 |
| 20260507085758 | 46 | 330 | 4.0 | 2.0 | 0.00 | 0.00 | 0.00 | 95 | 1018.2 |
| 20260507085259 | 46 | 315 | 3.0 | 3.0 | 0.00 | 0.00 | 0.00 | 95 | 1018.3 |
| 20260507084800 | 46 | 311 | 4.0 | 3.0 | 0.00 | 0.00 | 0.00 | 95 | 1018.3 |
| 20260507081304 | 46 | 294 | 5.0 | 7.0 | 0.00 | 0.00 | 0.00 | 95 | 1018.5 |
| 20260507080803 | 46 | 304 | 4.0 | 2.0 | 0.00 | 0.00 | 0.00 | 95 | 1018.5 |
| 20260507075307 | 46 | 323 | 4.0 | 5.0 | 0.00 | 0.00 | 0.00 | 95 | 1018.6 |
| 20260507074807 | 46 | 323 | 4.0 | 4.0 | 0.00 | 0.00 | 0.00 | 95 | 1018.6 |
| 20260507074305 | 46 | 298 | 3.0 | 4.0 | 0.00 | 0.00 | 0.00 | 94 | 1018.6 |
| 20260507073806 | 45 | 287 | 5.0 | 4.0 | 0.00 | 0.00 | 0.00 | 94 | 1018.6 |
| 20260507072808 | 45 | 295 | 2.0 | 2.0 | 0.00 | 0.00 | 0.00 | 93 | 1018.8 |
| 20260507072309 | 45 | 294 | 2.0 | 5.0 | 0.00 | 0.00 | 0.00 | 93 | 1018.8 |
| 20260507071808 | 45 | 278 | 5.0 | 3.0 | 0.00 | 0.00 | 0.00 | 93 | 1018.8 |
| 20260507071309 | 45 | 285 | 4.0 | 3.0 | 0.00 | 0.00 | 0.00 | 92 | 1018.9 |
| 20260507070810 | 45 | 301 | 3.0 | 5.0 | 0.00 | 0.00 | 0.00 | 92 | 1018.9 |
| 20260507065812 | 45 | 294 | 2.0 | 2.0 | 0.00 | 0.00 | 0.00 | 92 | 1019.0 |
| 20260507065310 | 46 | 255 | 3.0 | 3.0 | 0.00 | 0.00 | 0.00 | 91 | 1019.2 |
| 20260507064312 | 46 | 291 | 3.0 | 4.0 | 0.00 | 0.00 | 0.00 | 91 | 1019.1 |
| 20260507063314 | 46 | 312 | 2.0 | 3.0 | 0.00 | 0.00 | 0.00 | 90 | 1019.1 |
| 20260507062812 | 46 | 304 | 3.0 | 3.0 | 0.00 | 0.00 | 0.00 | 90 | 1019.2 |
| 20260507062313 | 46 | 298 | 4.0 | 3.0 | 0.00 | 0.00 | 0.00 | 89 | 1019.5 |
| 20260507061814 | 47 | 269 | 3.0 | 7.0 | 0.00 | 0.00 | 0.00 | 89 | 1019.2 |
| 20260507061315 | 47 | 301 | 4.0 | 1.0 | 0.00 | 0.00 | 0.00 | 89 | 1019.5 |
| 20260507060315 | 47 | 273 | 4.0 | 3.0 | 0.00 | 0.00 | 0.00 | 89 | 1019.4 |
| 20260507055816 | 47 | 356 | 2.0 | 2.0 | 0.00 | 0.00 | 0.00 | 89 | 1019.4 |
| 20260507055317 | 47 | 218 | 4.0 | 6.0 | 0.00 | 0.00 | 0.00 | 88 | 1019.6 |
| 20260507054818 | 47 | 259 | 2.0 | 5.0 | 0.00 | 0.00 | 0.00 | 88 | 1019.5 |
| 20260507054319 | 47 | 319 | 3.0 | 3.0 | 0.00 | 0.00 | 0.00 | 88 | 1019.5 |
| 20260507053817 | 47 | 293 | 3.0 | 5.0 | 0.00 | 0.00 | 0.00 | 88 | 1019.6 |
| 20260507052819 | 48 | 281 | 4.0 | 2.0 | 0.00 | 0.00 | 0.00 | 89 | 1019.6 |
| 20260507052320 | 48 | 318 | 4.0 | 2.0 | 0.00 | 0.00 | 0.00 | 88 | 1019.8 |
| 20260507051821 | 48 | 291 | 5.0 | 2.0 | 0.00 | 0.00 | 0.00 | 87 | 1019.6 |
| 20260507051319 | 48 | 287 | 5.0 | 4.0 | 0.00 | 0.00 | 0.00 | 86 | 1019.6 |
| 20260507050321 | 48 | 281 | 4.0 | 3.0 | 0.00 | 0.00 | 0.00 | 85 | 1019.7 |
| 20260507044822 | 48 | 284 | 3.0 | 2.0 | 0.00 | 0.00 | 0.00 | 84 | 1019.7 |
| 20260507044323 | 49 | 280 | 4.0 | 4.0 | 0.00 | 0.00 | 0.00 | 83 | 1019.7 |
| 20260507043325 | 49 | 300 | 5.0 | 2.0 | 0.00 | 0.00 | 0.00 | 81 | 1019.8 |
| 20260507042826 | 49 | 315 | 5.0 | 2.0 | 0.00 | 0.00 | 0.00 | 81 | 1019.7 |
| 20260507041327 | 50 | 343 | 4.0 | 3.0 | 0.00 | 0.00 | 0.00 | 81 | 1019.7 |
| 20260507040828 | 50 | 339 | 3.0 | 4.0 | 0.00 | 0.00 | 0.00 | 80 | 1019.7 |
| 20260507040329 | 50 | 311 | 6.0 | 4.0 | 0.00 | 0.00 | 0.00 | 80 | 1019.7 |